Flag for Germany Weather past 2 weeks in Bad Salzuflen, North Rhine-Westphalia, Germany

Now
64 °F

Partly sunny.


Feels Like: 64 °F
Forecast: 49 / 64 °F
Wind: 7 mph from Southwest

Location: Bueckeburg

Current Time: Sep 3, 2015 at 5:40:25 PM

Latest Report: Sep 3, 2015 at 4:20 PM


Visibility: N/A

Pressure: 29.89 "Hg

Humidity: 52%

Dew point: 46 °F

Location of Bad SalzuflenLocation

Historic Weather in Bad Salzuflen — Graph

°F

Bad Salzuflen temperature yesterday

Maximum temperature yesterday: 66 °F (at 3:20 PM)
Minimum temperature yesterday: 54 °F (at 2:20 AM)
Average temperature yesterday: 59 °F

Past Weeks' High & Low Weather Summary

 TemperatureHumidityPressure
High91 °F (Aug 31, 4:20 PM)100% (Aug 27, 7:20 PM)30.27 "Hg (Aug 27, 7:20 PM)
Low52 °F (Aug 29, 6:20 AM)30% (Aug 31, 4:20 PM)29.56 "Hg (Aug 24, 6:20 PM)
Average66 °F71%29.97 "Hg
* Reported Aug 19 4:20 PM — Sep 3 4:20 PM, Bad Salzuflen, Weather by CustomWeather, © 2015

Note: Actual official high and low records may vary slightly from our data, if they occured in-between our weather recording intervals... More about our weather records

Advertising

Bad Salzuflen weather history for previous 24 hours

 ConditionsComfort  
Time TempWeatherWind HumidityBarometerVisibility
4:20 PM
Thu, Sep 3
64 °FPartly sunny.7 mph52%29.89 "HgN/A
3:20 PM64 °FScattered clouds.2 mph56%29.92 "HgN/A
2:20 PM63 °FPassing clouds.5 mph59%29.92 "HgN/A
1:20 PM63 °FScattered clouds.6 mph64%29.92 "HgN/A
12:20 PM61 °FScattered clouds.6 mph63%29.95 "HgN/A
11:20 AM59 °FScattered clouds.3 mph72%29.95 "HgN/A
10:20 AM57 °FScattered clouds.6 mph82%29.95 "HgN/A
9:20 AM55 °FPartly sunny.3 mph88%29.95 "Hg6 mi
8:20 AM55 °FPartly sunny.2 mph88%29.95 "HgN/A
7:20 AM54 °FPartly cloudy.3 mph94%29.95 "Hg5 mi
6:20 AM54 °FPartly cloudy.2 mph94%29.95 "HgN/A
5:20 AM54 °FPartly cloudy.3 mph94%29.95 "HgN/A
4:20 AM52 °FPartly cloudy.5 mph100%29.95 "HgN/A
3:20 AM54 °FPassing clouds.3 mph94%29.98 "HgN/A
2:20 AM54 °FPassing clouds.3 mph94%29.98 "HgN/A
1:20 AM54 °FPassing clouds.3 mph94%29.98 "HgN/A
12:20 AM55 °FPartly cloudy.5 mph88%29.98 "HgN/A
11:20 PM
Wed, Sep 2
55 °FPassing clouds.1 mph88%29.98 "HgN/A
10:20 PM57 °FPassing clouds.2 mph82%29.98 "HgN/A
9:20 PM57 °FPassing clouds.5 mph77%29.98 "HgN/A
8:20 PM59 °FPartly sunny.6 mph72%29.98 "HgN/A
7:20 PM63 °FPartly sunny.7 mph59%29.98 "HgN/A
6:20 PM63 °FPartly sunny.8 mph59%29.98 "HgN/A
5:20 PM64 °FScattered clouds.8 mph56%29.98 "HgN/A
Weather by CustomWeather, © 2015

See weather overviewHow to use our weather pages